{"data":{"norad_id":59128,"epoch":"2026-05-25T02:47:45.192192Z","epoch_age_seconds":64899,"freshness":"FRESH","line1":"1 59128U 24043AG  26145.11649528  .00005430  00000+0  17928-3 0  9993","line2":"2 59128  97.5611 283.3329 0008875 328.9768  31.0948 15.31808157123580","mean_motion":15.31808157,"eccentricity":0.0008875,"inclination_deg":97.5611,"raan_deg":283.3329,"arg_perigee_deg":328.9768,"mean_anomaly_deg":31.0948,"bstar":0.00017928,"rev_number":12358,"period_min":94.006549933785,"perigee_km":464.33951159642,"apogee_km":476.49569601818,"semimajor_km":6848.5546038073,"source":"CELESTRAK","updated_at":"2026-05-25T13:38:01.195705Z"}}